Time,TemperatureF,DewpointF,PressureIn,WindDirection,WindDirectionDegrees,WindSpeedMPH,WindSpeedGustMPH,Humidity,HourlyPrecipIn,Conditions,Clouds,dailyrainin,SolarRadiationWatts/m^2,SoftwareType,DateUTC
2013-06-12 00:12:00,62.0,32.0,30.16,WSW,246,1.0,3.0,33,-99.99,,,-99.99,0.000000,,2013-06-12 07:12:00,
2013-06-12 00:22:00,61.0,32.0,30.16,SSW,205,1.0,4.0,34,-99.99,,,-99.99,0.000000,,2013-06-12 07:22:00,
2013-06-12 00:30:00,52.0,32.0,30.15,SE,144,7.0,9.0,46,-99.99,,,-99.99,1.000000,,2013-06-12 07:30:00,
2013-06-12 00:33:00,60.0,32.0,30.16,SW,217,3.0,5.0,35,-99.99,,,-99.99,0.000000,,2013-06-12 07:33:00,
2013-06-12 00:43:00,57.0,31.0,30.16,ESE,116,4.0,6.0,38,-99.99,,,-99.99,1.000000,,2013-06-12 07:43:00,
2013-06-12 00:53:00,57.0,31.0,30.16,ESE,116,4.0,6.0,38,-99.99,,,-99.99,1.000000,,2013-06-12 07:53:00,
2013-06-12 01:00:00,52.0,34.0,30.16,SSE,148,10.0,15.0,50,-99.99,,,-99.99,1.000000,,2013-06-12 08:00:00,
2013-06-12 01:02:00,55.0,31.0,30.16,SE,124,2.0,4.0,39,-99.99,,,-99.99,1.000000,,2013-06-12 08:02:00,
2013-06-12 01:12:00,52.0,32.0,30.15,SE,144,7.0,9.0,46,-99.99,,,-99.99,1.000000,,2013-06-12 08:12:00,
2013-06-12 01:22:00,52.0,32.0,30.15,SE,144,7.0,9.0,46,-99.99,,,-99.99,1.000000,,2013-06-12 08:22:00,
2013-06-12 01:43:00,51.0,33.0,30.15,SE,146,8.0,15.0,50,-99.99,,,-99.99,1.000000,,2013-06-12 08:43:00,
2013-06-12 01:53:00,52.0,34.0,30.16,SSE,148,10.0,15.0,50,-99.99,,,-99.99,1.000000,,2013-06-12 08:53:00,
2013-06-12 02:11:00,51.0,35.0,30.15,SSE,151,10.0,12.0,53,-99.99,,,-99.99,1.000000,,2013-06-12 09:11:00,
2013-06-12 02:20:00,50.0,35.0,30.14,SSE,154,12.0,15.0,56,-99.99,,,-99.99,1.000000,,2013-06-12 09:20:00,
2013-06-12 02:22:00,52.0,35.0,30.16,SSE,158,13.0,15.0,52,-99.99,,,-99.99,0.000000,,2013-06-12 09:22:00,
2013-06-12 02:30:00,51.0,35.0,30.14,SSE,158,11.0,15.0,53,-99.99,,,-99.99,1.000000,,2013-06-12 09:30:00,
2013-06-12 02:33:00,52.0,35.0,30.15,SSE,157,13.0,15.0,52,-99.99,,,-99.99,0.000000,,2013-06-12 09:33:00,
2013-06-12 02:42:00,51.0,35.0,30.15,SSE,162,10.0,14.0,54,-99.99,,,-99.99,0.000000,,2013-06-12 09:42:00,
2013-06-12 02:53:00,51.0,35.0,30.15,SSE,160,11.0,16.0,55,-99.99,,,-99.99,0.000000,,2013-06-12 09:53:00,
2013-06-12 03:01:00,51.0,35.0,30.15,SSE,155,13.0,16.0,54,-99.99,,,-99.99,0.000000,,2013-06-12 10:01:00,
2013-06-12 03:11:00,50.0,35.0,30.14,SSE,154,12.0,15.0,56,-99.99,,,-99.99,1.000000,,2013-06-12 10:11:00,
2013-06-12 03:40:00,49.0,33.0,30.14,SE,142,12.0,18.0,53,-99.99,,,-99.99,0.000000,,2013-06-12 10:40:00,
2013-06-12 03:43:00,50.0,34.0,30.14,SE,143,7.0,10.0,54,-99.99,,,-99.99,0.000000,,2013-06-12 10:43:00,
2013-06-12 03:53:00,49.0,34.0,30.14,SE,129,6.0,7.0,57,-99.99,,,-99.99,1.000000,,2013-06-12 10:53:00,
2013-06-12 04:02:00,48.0,34.0,30.14,SE,125,6.0,8.0,57,-99.99,,,-99.99,1.000000,,2013-06-12 11:02:00,
2013-06-12 04:12:00,48.0,34.0,30.14,SE,129,5.0,8.0,57,-99.99,,,-99.99,1.000000,,2013-06-12 11:12:00,
2013-06-12 04:20:00,47.0,33.0,30.13,SE,140,8.0,10.0,58,-99.99,,,-99.99,1.000000,,2013-06-12 11:20:00,
2013-06-12 04:24:00,49.0,33.0,30.14,SE,131,8.0,11.0,55,-99.99,,,-99.99,1.000000,,2013-06-12 11:24:00,
2013-06-12 04:30:00,46.0,33.0,30.13,SE,125,7.0,9.0,60,-99.99,,,-99.99,0.000000,,2013-06-12 11:30:00,
2013-06-12 04:33:00,49.0,33.0,30.14,SE,142,12.0,18.0,53,-99.99,,,-99.99,0.000000,,2013-06-12 11:33:00,
2013-06-12 04:53:00,49.0,33.0,30.13,SSE,150,12.0,16.0,54,-99.99,,,-99.99,0.000000,,2013-06-12 11:53:00,
2013-06-12 05:00:00,47.0,32.0,30.13,SE,136,11.0,14.0,56,-99.99,,,-99.99,2.000000,,2013-06-12 12:00:00,
2013-06-12 05:01:00,47.0,33.0,30.13,SE,140,8.0,10.0,58,-99.99,,,-99.99,1.000000,,2013-06-12 12:01:00,
2013-06-12 05:10:00,48.0,32.0,30.13,SE,142,10.0,14.0,54,-99.99,,,-99.99,7.000000,,2013-06-12 12:10:00,
2013-06-12 05:11:00,47.0,33.0,30.13,SE,140,8.0,10.0,58,-99.99,,,-99.99,1.000000,,2013-06-12 12:11:00,
2013-06-12 05:20:00,48.0,32.0,30.14,SE,141,10.0,14.0,54,-99.99,,,-99.99,7.000000,,2013-06-12 12:20:00,
2013-06-12 05:30:00,48.0,32.0,30.14,SE,140,12.0,17.0,54,-99.99,,,-99.99,16.000000,,2013-06-12 12:30:00,
2013-06-12 05:42:00,47.0,33.0,30.13,SE,125,9.0,12.0,58,-99.99,,,-99.99,0.000000,,2013-06-12 12:42:00,
2013-06-12 05:53:00,47.0,32.0,30.13,SE,136,11.0,14.0,56,-99.99,,,-99.99,2.000000,,2013-06-12 12:53:00,
2013-06-12 06:43:00,48.0,32.0,30.15,SE,140,14.0,19.0,54,-99.99,,,-99.99,34.000000,,2013-06-12 13:43:00,
2013-06-12 06:53:00,49.0,32.0,30.15,SE,140,12.0,17.0,52,-99.99,,,-99.99,106.000000,,2013-06-12 13:53:00,
2013-06-12 07:01:00,50.0,33.0,30.15,SE,139,9.0,12.0,51,-99.99,,,-99.99,150.000000,,2013-06-12 14:01:00,
2013-06-12 07:11:00,50.0,33.0,30.15,SSE,156,10.0,13.0,52,-99.99,,,-99.99,170.000000,,2013-06-12 14:11:00,
2013-06-12 07:23:00,52.0,34.0,30.15,South,169,9.0,13.0,50,-99.99,,,-99.99,162.000000,,2013-06-12 14:23:00,
2013-06-12 07:33:00,54.0,34.0,30.15,SSE,167,8.0,13.0,47,-99.99,,,-99.99,240.000000,,2013-06-12 14:33:00,
2013-06-12 07:43:00,56.0,34.0,30.15,SSE,167,7.0,10.0,43,-99.99,,,-99.99,291.000000,,2013-06-12 14:43:00,
2013-06-12 07:53:00,58.0,33.0,30.14,SSE,161,9.0,17.0,40,-99.99,,,-99.99,266.000000,,2013-06-12 14:53:00,
2013-06-12 08:01:00,58.0,32.0,30.14,SSE,161,13.0,18.0,37,-99.99,,,-99.99,352.000000,,2013-06-12 15:01:00,
2013-06-12 08:12:00,61.0,32.0,30.14,South,173,11.0,17.0,34,-99.99,,,-99.99,388.000000,,2013-06-12 15:12:00,
2013-06-12 08:23:00,63.0,32.0,30.14,South,188,10.0,16.0,31,-99.99,,,-99.99,443.000000,,2013-06-12 15:23:00,
2013-06-12 08:30:00,74.0,22.0,30.13,ESE,119,14.0,22.0,14,-99.99,,,-99.99,594.000000,,2013-06-12 15:30:00,
2013-06-12 08:32:00,63.0,32.0,30.14,South,188,10.0,16.0,31,-99.99,,,-99.99,443.000000,,2013-06-12 15:32:00,
2013-06-12 08:43:00,66.0,30.0,30.14,SSW,198,11.0,15.0,26,-99.99,,,-99.99,501.000000,,2013-06-12 15:43:00,
2013-06-12 08:52:00,69.0,31.0,30.14,South,169,7.0,14.0,24,-99.99,,,-99.99,500.000000,,2013-06-12 15:52:00,
2013-06-12 09:11:00,73.0,21.0,30.13,ESE,119,13.0,21.0,14,-99.99,,,-99.99,553.000000,,2013-06-12 16:11:00,
2013-06-12 09:21:00,74.0,22.0,30.13,ESE,119,14.0,22.0,14,-99.99,,,-99.99,594.000000,,2013-06-12 16:21:00,
2013-06-12 09:50:00,76.0,22.0,30.14,South,189,16.0,22.0,13,-99.99,,,-99.99,842.000000,,2013-06-12 16:50:00,
2013-06-12 10:01:00,75.0,21.0,30.14,SE,134,15.0,24.0,13,-99.99,,,-99.99,759.000000,,2013-06-12 17:01:00,
2013-06-12 10:11:00,75.0,19.0,30.14,South,181,16.0,27.0,12,-99.99,,,-99.99,747.000000,,2013-06-12 17:11:00,
2013-06-12 10:22:00,75.0,21.0,30.14,South,189,16.0,22.0,13,-99.99,,,-99.99,764.000000,,2013-06-12 17:22:00,
2013-06-12 10:33:00,76.0,22.0,30.14,South,189,16.0,22.0,13,-99.99,,,-99.99,842.000000,,2013-06-12 17:33:00,
2013-06-12 10:42:00,76.0,22.0,30.14,South,189,16.0,22.0,13,-99.99,,,-99.99,842.000000,,2013-06-12 17:42:00,
2013-06-12 11:22:00,76.0,23.0,30.14,South,172,13.0,24.0,14,-99.99,,,-99.99,693.000000,,2013-06-12 18:22:00,
2013-06-12 11:32:00,76.0,22.0,30.14,SSE,159,15.0,23.0,13,-99.99,,,-99.99,729.000000,,2013-06-12 18:32:00,
2013-06-12 11:43:00,75.0,19.0,30.14,SSE,165,15.0,25.0,12,-99.99,,,-99.99,573.000000,,2013-06-12 18:43:00,
2013-06-12 11:53:00,76.0,19.0,30.14,SSE,162,14.0,22.0,12,-99.99,,,-99.99,646.000000,,2013-06-12 18:53:00,
2013-06-12 12:01:00,76.0,20.0,30.14,South,172,17.0,26.0,12,-99.99,,,-99.99,819.000000,,2013-06-12 19:01:00,
2013-06-12 12:11:00,77.0,20.0,30.14,South,179,14.0,25.0,12,-99.99,,,-99.99,594.000000,,2013-06-12 19:11:00,
2013-06-12 12:22:00,76.0,20.0,30.14,South,180,19.0,34.0,12,-99.99,,,-99.99,632.000000,,2013-06-12 19:22:00,
2013-06-12 12:32:00,77.0,20.0,30.13,South,184,17.0,26.0,12,-99.99,,,-99.99,649.000000,,2013-06-12 19:32:00,
2013-06-12 12:42:00,77.0,20.0,30.12,South,176,20.0,32.0,12,-99.99,,,-99.99,653.000000,,2013-06-12 19:42:00,
2013-06-12 12:52:00,77.0,20.0,30.12,South,177,17.0,25.0,12,-99.99,,,-99.99,677.000000,,2013-06-12 19:52:00,
2013-06-12 13:01:00,78.0,20.0,30.12,South,189,16.0,27.0,11,-99.99,,,-99.99,879.000000,,2013-06-12 20:01:00,
2013-06-12 13:11:00,80.0,18.0,30.12,South,191,21.0,31.0,10,-99.99,,,-99.99,1073.000000,,2013-06-12 20:11:00,
2013-06-12 13:21:00,80.0,16.0,30.11,SSW,194,21.0,32.0,9,-99.99,,,-99.99,1206.000000,,2013-06-12 20:21:00,
2013-06-12 13:32:00,82.0,17.0,30.11,SSW,194,21.0,32.0,9,-99.99,,,-99.99,1097.000000,,2013-06-12 20:32:00,
2013-06-12 13:42:00,81.0,19.0,30.10,South,180,16.0,30.0,10,-99.99,,,-99.99,1099.000000,,2013-06-12 20:42:00,
2013-06-12 13:54:00,81.0,19.0,30.10,South,180,16.0,30.0,10,-99.99,,,-99.99,1099.000000,,2013-06-12 20:54:00,
2013-06-12 14:01:00,82.0,20.0,30.10,South,186,24.0,46.0,10,-99.99,,,-99.99,1107.000000,,2013-06-12 21:01:00,
2013-06-12 14:11:00,82.0,20.0,30.09,South,189,28.0,41.0,10,-99.99,,,-99.99,1191.000000,,2013-06-12 21:11:00,
2013-06-12 14:20:00,82.0,23.0,30.08,SSW,196,25.0,35.0,11,-99.99,,,-99.99,732.000000,,2013-06-12 21:20:00,
2013-06-12 14:21:00,82.0,20.0,30.09,SSW,208,26.0,37.0,10,-99.99,,,-99.99,1006.000000,,2013-06-12 21:21:00,
2013-06-12 14:33:00,83.0,21.0,30.09,SSW,192,22.0,31.0,10,-99.99,,,-99.99,891.000000,,2013-06-12 21:33:00,
2013-06-12 14:43:00,83.0,21.0,30.08,SSW,201,25.0,47.0,10,-99.99,,,-99.99,701.000000,,2013-06-12 21:43:00,
2013-06-12 14:52:00,83.0,21.0,30.08,SSW,201,25.0,47.0,10,-99.99,,,-99.99,701.000000,,2013-06-12 21:52:00,
2013-06-12 15:01:00,82.0,23.0,30.08,SSW,196,25.0,35.0,11,-99.99,,,-99.99,732.000000,,2013-06-12 22:01:00,
2013-06-12 15:11:00,82.0,23.0,30.08,SSW,196,25.0,35.0,11,-99.99,,,-99.99,732.000000,,2013-06-12 22:11:00,
2013-06-12 15:30:00,83.0,25.0,30.06,South,177,22.0,35.0,12,-99.99,,,-99.99,998.000000,,2013-06-12 22:30:00,
2013-06-12 15:32:00,81.0,23.0,30.07,SSE,148,23.0,33.0,12,-99.99,,,-99.99,454.000000,,2013-06-12 22:32:00,
2013-06-12 15:43:00,80.0,23.0,30.07,South,170,18.0,33.0,12,-99.99,,,-99.99,271.000000,,2013-06-12 22:43:00,
2013-06-12 15:52:00,80.0,23.0,30.07,South,170,18.0,33.0,12,-99.99,,,-99.99,271.000000,,2013-06-12 22:52:00,
2013-06-12 16:01:00,83.0,23.0,30.06,South,181,20.0,33.0,11,-99.99,,,-99.99,990.000000,,2013-06-12 23:01:00,
2013-06-12 16:11:00,83.0,25.0,30.06,South,177,22.0,35.0,12,-99.99,,,-99.99,998.000000,,2013-06-12 23:11:00,
2013-06-12 16:20:00,81.0,24.0,30.04,SE,142,25.0,42.0,12,-99.99,,,-99.99,357.000000,,2013-06-12 23:20:00,
2013-06-12 16:22:00,83.0,25.0,30.06,South,177,22.0,35.0,12,-99.99,,,-99.99,998.000000,,2013-06-12 23:22:00,
2013-06-12 16:42:00,81.0,24.0,30.05,SSE,148,27.0,41.0,12,-99.99,,,-99.99,786.000000,,2013-06-12 23:42:00,
2013-06-12 16:52:00,81.0,24.0,30.05,SSE,157,23.0,40.0,12,-99.99,,,-99.99,703.000000,,2013-06-12 23:52:00,
2013-06-12 17:00:00,80.0,23.0,30.03,SSE,149,15.0,23.0,12,-99.99,,,-99.99,304.000000,,2013-06-13 00:00:00,
2013-06-12 17:01:00,81.0,24.0,30.05,SSE,157,23.0,40.0,12,-99.99,,,-99.99,703.000000,,2013-06-13 00:01:00,
2013-06-12 17:11:00,81.0,24.0,30.04,SE,142,25.0,42.0,12,-99.99,,,-99.99,357.000000,,2013-06-13 00:11:00,
2013-06-12 17:40:00,83.0,23.0,30.01,South,186,17.0,31.0,11,-99.99,,,-99.99,532.000000,,2013-06-13 00:40:00,
2013-06-12 17:52:00,80.0,23.0,30.03,SSE,149,15.0,23.0,12,-99.99,,,-99.99,304.000000,,2013-06-13 00:52:00,
2013-06-12 18:30:00,81.0,22.0,29.99,SSE,153,24.0,47.0,11,-99.99,,,-99.99,149.000000,,2013-06-13 01:30:00,
2013-06-12 19:11:00,81.0,22.0,29.99,SSE,153,24.0,47.0,11,-99.99,,,-99.99,149.000000,,2013-06-13 02:11:00,
2013-06-12 19:22:00,81.0,22.0,29.99,SSE,153,24.0,47.0,11,-99.99,,,-99.99,149.000000,,2013-06-13 02:22:00,
2013-06-12 20:01:00,80.0,23.0,29.99,SSE,151,23.0,34.0,12,-99.99,,,-99.99,80.000000,,2013-06-13 03:01:00,
2013-06-12 20:11:00,80.0,23.0,29.99,SSE,151,23.0,34.0,12,-99.99,,,-99.99,80.000000,,2013-06-13 03:11:00,
2013-06-12 20:22:00,79.0,22.0,30.00,SSE,156,20.0,34.0,12,-99.99,,,-99.99,48.000000,,2013-06-13 03:22:00,
2013-06-12 20:33:00,79.0,22.0,29.99,SSE,152,25.0,35.0,12,-99.99,,,-99.99,34.000000,,2013-06-13 03:33:00,
2013-06-12 20:42:00,78.0,21.0,30.00,SSE,156,21.0,29.0,12,-99.99,,,-99.99,7.000000,,2013-06-13 03:42:00,
2013-06-12 20:52:00,78.0,21.0,30.00,SSE,156,21.0,29.0,12,-99.99,,,-99.99,7.000000,,2013-06-13 03:52:00,
2013-06-12 21:01:00,77.0,22.0,30.00,SSE,152,16.0,25.0,13,-99.99,,,-99.99,7.000000,,2013-06-13 04:01:00,
2013-06-12 21:11:00,76.0,22.0,30.00,SSE,155,17.0,29.0,13,-99.99,,,-99.99,3.000000,,2013-06-13 04:11:00,
2013-06-12 21:22:00,77.0,22.0,30.00,SSE,153,21.0,35.0,13,-99.99,,,-99.99,0.000000,,2013-06-13 04:22:00,
2013-06-12 21:32:00,77.0,22.0,30.00,SSE,156,24.0,34.0,13,-99.99,,,-99.99,0.000000,,2013-06-13 04:32:00,
2013-06-12 21:43:00,77.0,22.0,30.01,SSE,154,22.0,31.0,13,-99.99,,,-99.99,0.000000,,2013-06-13 04:43:00,
2013-06-12 21:53:00,77.0,22.0,30.01,SSE,154,22.0,31.0,13,-99.99,,,-99.99,0.000000,,2013-06-13 04:53:00,
2013-06-12 22:02:00,76.0,22.0,30.01,SSE,151,20.0,30.0,13,-99.99,,,-99.99,0.000000,,2013-06-13 05:02:00,
2013-06-12 22:11:00,76.0,22.0,30.01,SSE,156,22.0,33.0,13,-99.99,,,-99.99,0.000000,,2013-06-13 05:11:00,
2013-06-12 22:20:00,75.0,22.0,30.02,SSE,163,21.0,34.0,14,-99.99,,,-99.99,0.000000,,2013-06-13 05:20:00,
2013-06-12 22:23:00,75.0,23.0,30.02,SSE,152,21.0,30.0,14,-99.99,,,-99.99,0.000000,,2013-06-13 05:23:00,
2013-06-12 22:33:00,75.0,23.0,30.02,SSE,157,21.0,34.0,14,-99.99,,,-99.99,0.000000,,2013-06-13 05:33:00,
2013-06-12 22:42:00,75.0,23.0,30.02,SSE,158,21.0,31.0,14,-99.99,,,-99.99,0.000000,,2013-06-13 05:42:00,
2013-06-12 22:53:00,75.0,22.0,30.02,SSE,157,20.0,30.0,14,-99.99,,,-99.99,0.000000,,2013-06-13 05:53:00,
2013-06-12 23:02:00,75.0,23.0,30.02,SSE,160,22.0,35.0,14,-99.99,,,-99.99,0.000000,,2013-06-13 06:02:00,
2013-06-12 23:11:00,75.0,22.0,30.02,SSE,163,21.0,34.0,14,-99.99,,,-99.99,0.000000,,2013-06-13 06:11:00,
2013-06-12 23:20:00,74.0,23.0,30.03,SSE,166,16.0,27.0,15,-99.99,,,-99.99,0.000000,,2013-06-13 06:20:00,
2013-06-12 23:33:00,74.0,22.0,30.02,SSE,163,20.0,37.0,14,-99.99,,,-99.99,0.000000,,2013-06-13 06:33:00,
2013-06-12 23:44:00,75.0,22.0,30.02,SSE,166,19.0,32.0,14,-99.99,,,-99.99,0.000000,,2013-06-13 06:44:00,
2013-06-12 23:52:00,74.0,22.0,30.02,SSE,159,23.0,34.0,14,-99.99,,,-99.99,0.000000,,2013-06-13 06:52:00,